PVL927 CYXU-CYXU

Flight info

Callsign PVL927
Flight time N/A
Altitude 16000
Route SYR V483 DINES/N0321F240 DCT COLTS DCT ITPEG
Aircraft DH8D/M-SDE2E3FGRY/H

Departure

Time 2026-04-25 23:27
Airport London International Airport (CYXU)

Arrival

Time N/A
Airport London International Airport (CYXU)
Time Latitude Longitude Altitude Speed Heading
2026-04-25 23:11 43.02955 -81.14918 906 ft 0 kts 182°
2026-04-25 23:19 43.02958 -81.14918 906 ft 1 kts 182°
2026-04-25 23:19 43.02977 -81.14912 906 ft 6 kts 214°
2026-04-25 23:20 43.02993 -81.14893 906 ft 3 kts 328°
2026-04-25 23:20 43.03057 -81.14916 906 ft 20 kts 327°
2026-04-25 23:20 43.03167 -81.15044 907 ft 15 kts 318°
2026-04-25 23:20 43.03240 -81.15134 909 ft 10 kts 318°
2026-04-25 23:21 43.03306 -81.15128 909 ft 9 kts 41°
2026-04-25 23:21 43.03326 -81.15102 909 ft 0 kts 44°
2026-04-25 23:26 43.03330 -81.15097 910 ft 7 kts 44°
2026-04-25 23:26 43.03336 -81.14936 910 ft 33 kts 124°
2026-04-25 23:26 43.02907 -81.14410 910 ft 136 kts 136°
2026-04-25 23:27 43.02037 -81.13411 1257 ft 179 kts 139°
2026-04-25 23:27 43.00996 -81.12315 2081 ft 202 kts 138°
2026-04-25 23:27 42.99797 -81.11079 2672 ft 229 kts 138°
2026-04-25 23:27 42.98457 -81.09721 2906 ft 254 kts 139°
2026-04-25 23:28 42.97033 -81.08276 2961 ft 247 kts 138°
2026-04-25 23:28 42.95722 -81.06951 2961 ft 223 kts 137°
2026-04-25 23:28 42.94840 -81.05387 2965 ft 201 kts 101°
2026-04-25 23:28 42.95003 -81.03661 2972 ft 179 kts 56°
2026-04-25 23:29 42.96032 -81.02805 2989 ft 181 kts 11°
2026-04-25 23:29 42.97309 -81.03156 3006 ft 198 kts 344°
2026-04-25 23:29 42.98610 -81.03966 3006 ft 214 kts 340°
2026-04-25 23:29 42.99972 -81.04913 2999 ft 221 kts 338°
2026-04-25 23:30 43.01317 -81.05903 2991 ft 217 kts 337°
2026-04-25 23:30 43.02623 -81.06889 2987 ft 209 kts 337°
2026-04-25 23:30 43.03870 -81.07839 2987 ft 205 kts 336°
2026-04-25 23:30 43.05111 -81.08792 2991 ft 204 kts 336°
2026-04-25 23:31 43.06356 -81.09756 2991 ft 203 kts 336°
2026-04-25 23:31 43.07622 -81.10732 3004 ft 217 kts 336°
2026-04-25 23:31 43.08955 -81.11766 3007 ft 224 kts 336°
2026-04-25 23:31 43.10324 -81.12838 3011 ft 229 kts 335°
2026-04-25 23:32 43.11711 -81.13930 3012 ft 233 kts 335°
2026-04-25 23:32 43.13082 -81.15019 2998 ft 220 kts 335°
2026-04-25 23:32 43.14366 -81.16045 2996 ft 209 kts 335°
2026-04-25 23:32 43.15624 -81.17046 3004 ft 208 kts 335°
2026-04-25 23:33 43.16898 -81.18055 3010 ft 214 kts 335°
2026-04-25 23:33 43.18186 -81.19076 3006 ft 212 kts 335°
2026-04-25 23:33 43.19475 -81.20118 3008 ft 219 kts 332°
2026-04-25 23:33 43.20478 -81.21735 3008 ft 237 kts 297°
2026-04-25 23:34 43.20548 -81.24032 3014 ft 251 kts 257°
2026-04-25 23:34 43.19612 -81.26080 3031 ft 256 kts 227°
2026-04-25 23:34 43.18361 -81.27776 3003 ft 247 kts 219°
2026-04-25 23:34 43.16891 -81.28617 2935 ft 221 kts 179°
2026-04-25 23:35 43.15536 -81.28087 2906 ft 191 kts 145°
2026-04-25 23:35 43.14465 -81.27196 2886 ft 170 kts 141°
2026-04-25 23:35 43.13477 -81.26305 2881 ft 169 kts 139°
2026-04-25 23:35 43.12527 -81.25384 2952 ft 170 kts 137°
2026-04-25 23:36 43.11553 -81.24382 2901 ft 177 kts 136°
2026-04-25 23:36 43.10928 -81.23721 3113 ft 170 kts 134°
2026-04-25 23:36 43.09638 -81.22285 3180 ft 185 kts 134°
2026-04-25 23:36 43.08662 -81.21181 2943 ft 177 kts 134°
2026-04-25 23:37 43.07743 -81.20131 2642 ft 169 kts 133°
2026-04-25 23:37 43.06853 -81.19093 2257 ft 168 kts 133°
2026-04-25 23:37 43.05973 -81.18057 1835 ft 170 kts 134°
2026-04-25 23:37 43.05077 -81.16997 1389 ft 172 kts 135°
2026-04-25 23:38 43.04180 -81.15948 1069 ft 170 kts 137°
2026-04-25 23:38 43.03182 -81.14732 1140 ft 208 kts 133°
2026-04-25 23:38 43.02184 -81.13465 1941 ft 189 kts 134°
2026-04-25 23:38 43.01203 -81.12334 2542 ft 186 kts 136°
2026-04-25 23:39 43.00126 -81.11263 2822 ft 199 kts 139°
2026-04-25 23:39 42.98962 -81.10131 2945 ft 212 kts 139°
2026-04-25 23:39 42.97734 -81.08928 2985 ft 219 kts 139°
2026-04-25 23:39 42.96489 -81.07707 2999 ft 223 kts 139°
2026-04-25 23:40 42.95224 -81.06458 3003 ft 222 kts 138°
2026-04-25 23:40 42.94018 -81.05160 2989 ft 217 kts 127°
2026-04-25 23:40 42.93515 -81.03351 2999 ft 201 kts 84°
2026-04-25 23:40 42.94080 -81.01708 3003 ft 195 kts 43°
2026-04-25 23:41 42.95361 -81.01138 3003 ft 203 kts
2026-04-25 23:41 42.96722 -81.01707 3011 ft 209 kts 342°
2026-04-25 23:41 42.98046 -81.02556 3001 ft 211 kts 339°
2026-04-25 23:41 42.99352 -81.03477 2999 ft 211 kts 338°
2026-04-25 23:42 43.00647 -81.04438 3000 ft 212 kts 336°
2026-04-25 23:42 43.01923 -81.05419 3001 ft 213 kts 336°
2026-04-25 23:42 43.03213 -81.06436 3005 ft 213 kts 335°
2026-04-25 23:42 43.04503 -81.07472 3005 ft 214 kts 335°
2026-04-25 23:43 43.05780 -81.08511 3007 ft 214 kts 335°
2026-04-25 23:43 43.07046 -81.09551 3008 ft 214 kts 335°
2026-04-25 23:43 43.08321 -81.10606 3007 ft 215 kts 334°
2026-04-25 23:43 43.09600 -81.11670 3008 ft 215 kts 334°
2026-04-25 23:44 43.10872 -81.12733 3009 ft 215 kts 334°
2026-04-25 23:44 43.12163 -81.13814 3008 ft 215 kts 334°
2026-04-25 23:44 43.13434 -81.14883 3006 ft 215 kts 334°
2026-04-25 23:44 43.14711 -81.15958 3007 ft 215 kts 334°
2026-04-25 23:45 43.15979 -81.17027 3006 ft 215 kts 334°
2026-04-25 23:45 43.17252 -81.18102 3006 ft 215 kts 334°
2026-04-25 23:45 43.18515 -81.19169 3006 ft 215 kts 334°
2026-04-25 23:45 43.19775 -81.20304 2994 ft 218 kts 326°
2026-04-25 23:46 43.20542 -81.22098 3001 ft 230 kts 284°
2026-04-25 23:46 43.20278 -81.24249 3005 ft 236 kts 243°
2026-04-25 23:46 43.19256 -81.26032 3015 ft 237 kts 227°
2026-04-25 23:46 43.18144 -81.27685 3011 ft 237 kts 226°
2026-04-25 23:47 43.16789 -81.28865 2997 ft 233 kts 191°
2026-04-25 23:47 43.15237 -81.28645 3005 ft 219 kts 149°
2026-04-25 23:47 43.14013 -81.27484 3010 ft 215 kts 136°
2026-04-25 23:47 43.13245 -81.26631 2972 ft 217 kts 135°
2026-04-25 23:48 43.11714 -81.24879 2788 ft 205 kts 134°
2026-04-25 23:48 43.10705 -81.23711 2551 ft 176 kts 134°
2026-04-25 23:48 43.09831 -81.22693 2304 ft 159 kts 133°
2026-04-25 23:48 43.08955 -81.21658 2107 ft 168 kts 134°
2026-04-25 23:49 43.08080 -81.20618 1883 ft 166 kts 135°
2026-04-25 23:49 43.07219 -81.19592 1656 ft 164 kts 135°